LDPE-2

Last updated on Sun Jan 18 2026 00:02:49 GMT+0000 (Coordinated Universal Time)

1 54219U 22144A 26017.36586824 .00000033 00000+0 00000+0 0 9996 2 54219 5.2760 64.6962 0002634 271.8932 251.0666 1.02052708 10320
UTC large
Height (km)
Speed (km/s)
/
Latitude / Longitude
Inclination (degrees)
Orbital Period (minutes)
Azimuth
Elevation
Range (km)
Doppler Factor

Next 0 passes for location: London (51.5072 / 0.1276)

Sorry there are no passes over London.